DW9572 Weather Reports


Display with metric or nautical units.
time (UTC)temp
F
wind
direction
speed
MPH
gust
MPH
rain 1hr
in
rain 24hr
in
rain mn
in
humidity
%
barometer
mb
20260508083009 59 272 9.0 14.0 0.00 0.00 0.00 43 1011.8
20260508081509 59 283 9.0 12.0 0.00 0.00 0.00 45 1011.7
20260508080007 59 278 7.0 9.0 0.00 0.00 0.00 44 1011.7
20260508074553 61 266 6.0 9.0 0.00 0.00 0.00 41 1011.7
20260508073149 62 281 7.0 9.0 0.00 0.00 0.00 39 1011.6
20260508071532 62 263 5.0 7.0 0.00 0.00 0.00 41 1011.7
20260508070031 63 286 2.0 6.0 0.00 0.00 0.00 39 1011.6
20260508064546 64 303 2.0 6.0 0.00 0.00 0.00 38 1011.5
20260508063026 65 285 0.0 0.0 0.00 0.00 0.00 38 1011.5
20260508061519 64 330 1.0 2.0 0.00 0.00 0.00 38 1011.5
20260508060019 69 346 8.0 8.0 0.00 0.00 0.00 32 1011.3
20260508054529 69 338 6.0 8.0 0.00 0.00 0.00 31 1011.3
20260508053018 65 336 0.0 0.0 0.00 0.00 0.00 38 1011.2
20260508051524 67 293 2.0 4.0 0.00 0.00 0.00 37 1011.0
20260508050030 68 295 1.0 3.0 0.00 0.00 0.00 37 1011.0
20260508044559 68 323 1.0 4.0 0.00 0.00 0.00 36 1010.9
20260508043101 70 281 3.0 5.0 0.00 0.00 0.00 37 1010.9
20260508041541 70 285 4.0 7.0 0.00 0.00 0.00 37 1010.9
20260508040050 71 289 4.0 6.0 0.00 0.00 0.00 36 1010.9
20260508034527 71 281 5.0 8.0 0.00 0.00 0.00 36 1010.8
20260508033023 72 285 3.0 5.0 0.00 0.00 0.00 36 1010.7
20260508031507 73 277 5.0 7.0 0.00 0.00 0.00 36 1010.8
20260508030005 73 281 7.0 8.0 0.00 0.00 0.00 36 1010.7
20260508024548 74 267 4.0 6.0 0.00 0.00 0.00 36 1010.6
20260508023047 74 260 5.0 8.0 0.00 0.00 0.00 34 1010.6
20260508021528 76 224 5.0 8.0 0.00 0.00 0.00 32 1010.6
20260508020026 78 212 7.0 10.0 0.00 0.00 0.00 28 1010.7
20260508014509 78 191 5.0 12.0 0.00 0.00 0.00 25 1010.7
20260508013010 79 198 7.0 10.0 0.00 0.00 0.00 25 1010.7
20260508011554 79 191 6.0 12.0 0.00 0.00 0.00 23 1010.7
20260508010049 79 179 5.0 9.0 0.00 0.00 0.00 20 1010.9
20260508004537 79 183 2.0 10.0 0.00 0.00 0.00 23 1011.0
20260508003026 79 198 9.0 12.0 0.00 0.00 0.00 23 1011.1
20260508001510 79 242 6.0 12.0 0.00 0.00 0.00 23 1011.2
20260508000008 79 212 7.0 13.0 0.00 0.00 0.00 23 1011.1
20260507234550 79 137 8.0 15.0 0.00 0.00 0.00 23 1011.2
20260507233048 79 202 9.0 13.0 0.00 0.00 0.00 25 1011.3
20260507231531 79 200 8.0 14.0 0.00 0.00 0.00 26 1011.5
20260507230026 78 202 4.0 11.0 0.00 0.00 0.00 25 1011.7
20260507224512 79 210 9.0 15.0 0.00 0.00 0.00 25 1011.9
20260507223011 78 204 10.0 16.0 0.00 0.00 0.00 25 1012.1
20260507221645 78 217 11.0 17.0 0.00 0.00 0.00 26 1012.3
20260507220042 78 203 10.0 17.0 0.00 0.00 0.00 27 1012.4
20260507214530 77 211 9.0 18.0 0.00 0.00 0.00 27 1012.6
20260507213024 77 221 9.0 17.0 0.00 0.00 0.00 28 1012.8
20260507211529 77 232 13.0 20.0 0.00 0.00 0.00 27 1013.0
20260507210019 76 259 13.0 17.0 0.00 0.00 0.00 28 1013.1
20260507204518 76 264 11.0 19.0 0.00 0.00 0.00 28 1013.3
20260507203016 76 214 13.0 20.0 0.00 0.00 0.00 30 1013.4
20260507201517 76 215 12.0 21.0 0.00 0.00 0.00 30 1013.5
20260507200012 75 262 13.0 23.0 0.00 0.00 0.00 31 1013.5
20260507194510 75 246 13.0 19.0 0.00 0.00 0.00 31 1013.6
20260507193011 74 200 12.0 24.0 0.00 0.00 0.00 32 1013.8
20260507191510 73 195 12.0 23.0 0.00 0.00 0.00 30 1013.9
20260507190006 73 269 12.0 23.0 0.00 0.00 0.00 28 1014.0
20260507184504 73 252 13.0 20.0 0.00 0.00 0.00 26 1014.1
20260507183002 72 264 15.0 24.0 0.00 0.00 0.00 27 1014.2
20260507181540 72 269 17.0 25.0 0.00 0.00 0.00 28 1014.1
20260507180040 72 204 17.0 23.0 0.00 0.00 0.00 30 1014.1
20260507174540 71 215 14.0 19.0 0.00 0.00 0.00 34 1014.3
20260507173023 70 195 16.0 22.0 0.00 0.00 0.00 35 1014.3
20260507171621 70 214 16.0 21.0 0.00 0.00 0.00 37 1014.3
20260507170058 69 181 7.0 14.0 0.00 0.00 0.00 45 1014.5
20260507164539 68 163 5.0 14.0 0.00 0.00 0.00 43 1014.6
20260507163036 68 143 4.0 8.0 0.00 0.00 0.00 40 1014.8
20260507161519 67 190 5.0 10.0 0.00 0.00 0.00 40 1014.8
20260507160015 66 185 11.0 13.0 0.00 0.00 0.00 44 1014.8
20260507154554 66 188 8.0 12.0 0.00 0.00 0.00 44 1014.8
20260507153051 65 210 8.0 12.0 0.00 0.00 0.00 47 1014.6
20260507151529 64 226 9.0 12.0 0.00 0.00 0.00 48 1014.6
20260507150025 62 210 8.0 13.0 0.00 0.00 0.00 52 1014.6
20260507144505 61 225 11.0 14.0 0.00 0.00 0.00 54 1014.4
20260507143119 59 231 9.0 11.0 0.00 0.00 0.00 57 1014.4
20260507141538 58 269 7.0 9.0 0.00 0.00 0.00 60 1014.4
20260507140044 57 267 9.0 10.0 0.00 0.00 0.00 61 1014.3
20260507134514 56 248 5.0 7.0 0.00 0.00 0.00 64 1014.2
20260507133011 54 284 4.0 7.0 0.00 0.00 0.00 68 1014.2
20260507131617 52 301 1.0 6.0 0.00 0.00 0.00 71 1014.1
20260507130052 53 298 2.0 3.0 0.00 0.00 0.00 70 1013.9
20260507124533 54 314 3.0 7.0 0.00 0.00 0.00 67 1013.8
20260507123038 52 321 4.0 5.0 0.00 0.00 0.00 75 1013.9
20260507121510 52 335 5.0 7.0 0.00 0.00 0.00 73 1013.7
20260507120012 51 328 6.0 10.0 0.00 0.00 0.00 74 1013.7
20260507114549 51 331 4.0 9.0 0.00 0.00 0.00 74 1013.6
20260507113107 51 338 5.0 11.0 0.00 0.00 0.00 75 1013.5
20260507111531 55 126 0.0 3.0 0.00 0.00 0.00 72 1013.7
20260507110025 54 120 0.0 2.0 0.00 0.00 0.00 74 1013.5
20260507104517 53 84 1.0 6.0 0.00 0.00 0.00 75 1013.5
20260507103007 55 64 4.0 7.0 0.00 0.00 0.00 67 1013.2
20260507101507 56 263 5.0 8.0 0.00 0.00 0.00 67 1013.0
20260507100008 56 283 6.0 9.0 0.00 0.00 0.00 68 1013.1
20260507094502 58 316 2.0 5.0 0.00 0.00 0.00 54 1013.0
20260507093001 58 294 2.0 4.0 0.00 0.00 0.00 58 1013.0
20260507091559 60 328 6.0 11.0 0.00 0.00 0.00 56 1013.1
20260507090100 59 301 3.0 5.0 0.00 0.00 0.00 57 1013.3
20260507084602 59 309 1.0 4.0 0.00 0.00 0.00 62 1013.3